Satellite: MET-3/5 Catalog number: 21655 Epoch time: 07052.92654857 Element set: 0298 Inclination: 082.5517 deg RA of node: 084.3819 deg Eccentricity: 0.0013821 Arg of perigee: 132.2693 deg Mean anomaly: 227.9602 deg Mean motion: 13.17010095 rev/day Decay rate: 5.1e-07 rev/day^2 Epoch rev: 74623 Checksum: 302
Satellite: MET-2/21 Catalog number: 22782 Epoch time: 07052.66491210 Element set: 754 Inclination: 082.5495 deg RA of node: 133.5698 deg Eccentricity: 0.0021873 Arg of perigee: 196.4109 deg Mean anomaly: 163.6357 deg Mean motion: 13.83613896 rev/day Decay rate: 1.10e-06 rev/day^2 Epoch rev: 68054 Checksum: 318
Satellite: OKEAN-4 Catalog number: 23317 Epoch time: 07052.69507543 Element set: 192 Inclination: 082.5374 deg RA of node: 044.2735 deg Eccentricity: 0.0020558 Arg of perigee: 273.9403 deg Mean anomaly: 085.9486 deg Mean motion: 14.82470192 rev/day Decay rate: 3.55e-06 rev/day^2 Epoch rev: 66694 Checksum: 319
Satellite: NOAA-14 Catalog number: 23455 Epoch time: 07052.71612773 Element set: 0532 Inclination: 099.0028 deg RA of node: 118.2201 deg Eccentricity: 0.0009942 Arg of perigee: 069.8389 deg Mean anomaly: 290.3837 deg Mean motion: 14.13701578 rev/day Decay rate: 1.83e-06 rev/day^2 Epoch rev: 62632 Checksum: 302
Satellite: SICH-1 Catalog number: 23657 Epoch time: 07052.65649917 Element set: 994 Inclination: 082.5308 deg RA of node: 185.2267 deg Eccentricity: 0.0022481 Arg of perigee: 262.7006 deg Mean anomaly: 097.1659 deg Mean motion: 14.81452585 rev/day Decay rate: -8.0e-08 rev/day^2 Epoch rev: 61892 Checksum: 331
Satellite: NOAA-15 Catalog number: 25338 Epoch time: 07052.56775191 Element set: 0890 Inclination: 098.5280 deg RA of node: 052.5275 deg Eccentricity: 0.0010675 Arg of perigee: 011.9059 deg Mean anomaly: 348.2355 deg Mean motion: 14.24626925 rev/day Decay rate: -1.08e-06 rev/day^2 Epoch rev: 45622 Checksum: 311
Satellite: RESURS Catalog number: 25394 Epoch time: 07053.75783813 Element set: 578 Inclination: 098.4577 deg RA of node: 112.7363 deg Eccentricity: 0.0001575 Arg of perigee: 130.7729 deg Mean anomaly: 229.3587 deg Mean motion: 14.24128249 rev/day Decay rate: 4.1e-07 rev/day^2 Epoch rev: 44806 Checksum: 320
Satellite: FENGYUN1 Catalog number: 25730 Epoch time: 07054.03843911 Element set: 975 Inclination: 098.6814 deg RA of node: 042.2699 deg Eccentricity: 0.0021551 Arg of perigee: 086.6231 deg Mean anomaly: 273.7394 deg Mean motion: 14.07421237 rev/day Decay rate: 3.62e-06 rev/day^2 Epoch rev: 40140 Checksum: 287
Satellite: OKEAN-0 Catalog number: 25860 Epoch time: 07052.58221724 Element set: 984 Inclination: 097.7308 deg RA of node: 060.2333 deg Eccentricity: 0.0001770 Arg of perigee: 058.5210 deg Mean anomaly: 301.6174 deg Mean motion: 14.73431827 rev/day Decay rate: 6.2e-07 rev/day^2 Epoch rev: 40847 Checksum: 278
Satellite: NOAA-16 Catalog number: 26536 Epoch time: 07052.57951081 Element set: 0300 Inclination: 099.1044 deg RA of node: 027.5836 deg Eccentricity: 0.0011108 Arg of perigee: 135.9976 deg Mean anomaly: 224.2077 deg Mean motion: 14.12404702 rev/day Decay rate: -2.53e-06 rev/day^2 Epoch rev: 33078 Checksum: 282
Satellite: NOAA-17 Catalog number: 27453 Epoch time: 07052.92303503 Element set: 0316 Inclination: 098.5924 deg RA of node: 124.9363 deg Eccentricity: 0.0012516 Arg of perigee: 072.6062 deg Mean anomaly: 287.6451 deg Mean motion: 14.23855743 rev/day Decay rate: 9.2e-07 rev/day^2 Epoch rev: 24231 Checksum: 290
Satellite: NOAA-18 Catalog number: 28654 Epoch time: 07052.74345680 Element set: 0856 Inclination: 098.8185 deg RA of node: 356.0313 deg Eccentricity: 0.0013770 Arg of perigee: 233.6568 deg Mean anomaly: 126.3309 deg Mean motion: 14.11040540 rev/day Decay rate: 3.72e-06 rev/day^2 Epoch rev: 09057 Checksum: 302
/EX SB KEPS @ AMSAT $ORB07053.M Orbital Elements 07053.MISC
HR AMSAT ORBITAL ELEMENTS FOR MANNED AND MISCELLANEOUS SATELLITES FROM WA5QGD FORT WORTH,TX February 22, 2007 Send SUBSCRIBE KEPS/UNSUBSCRIBE KEPS to [email protected] only BID: ORB07053.M TO ALL RADIO AMATEURS BT
Satellite: HUBBLE Catalog number: 20580 Epoch time: 07053.71656698 Element set: 813 Inclination: 028.4661 deg RA of node: 216.5401 deg Eccentricity: 0.0003598 Arg of perigee: 321.4786 deg Mean anomaly: 038.5546 deg Mean motion: 15.00194259 rev/day Decay rate: 3.78e-06 rev/day^2 Epoch rev: 72275 Checksum: 309
Satellite: UARS Catalog number: 21701 Epoch time: 07052.91364912 Element set: 0002 Inclination: 056.9763 deg RA of node: 093.7189 deg Eccentricity: 0.0092644 Arg of perigee: 332.9691 deg Mean anomaly: 026.6557 deg Mean motion: 15.46766483 rev/day Decay rate: 4.335e-05 rev/day^2 Epoch rev: 84790 Checksum: 325
Satellite: PO-34 Catalog number: 25520 Epoch time: 07052.71478949 Element set: 679 Inclination: 028.4591 deg RA of node: 161.5571 deg Eccentricity: 0.0005152 Arg of perigee: 084.2315 deg Mean anomaly: 275.8867 deg Mean motion: 15.16929791 rev/day Decay rate: 4.40e-06 rev/day^2 Epoch rev: 45997 Checksum: 342
Satellite: ISS Catalog number: 25544 Epoch time: 07054.03741851 Element set: 696 Inclination: 051.6350 deg RA of node: 333.8996 deg Eccentricity: 0.0020887 Arg of perigee: 240.3422 deg Mean anomaly: 243.4041 deg Mean motion: 15.78577289 rev/day Decay rate: 9.4535e-04 rev/day^2 Epoch rev: 47274 Checksum: 323
Satellite: OO-38 Catalog number: 26063 Epoch time: 07052.70090799 Element set: 845 Inclination: 100.2202 deg RA of node: 034.0216 deg Eccentricity: 0.0037313 Arg of perigee: 124.6149 deg Mean anomaly: 235.8552 deg Mean motion: 14.35796361 rev/day Decay rate: -2.4e-07 rev/day^2 Epoch rev: 37047 Checksum: 281
Satellite: NO-45 Catalog number: 26932 Epoch time: 07053.55444281 Element set: 533 Inclination: 067.0531 deg RA of node: 082.5245 deg Eccentricity: 0.0004403 Arg of perigee: 286.8854 deg Mean anomaly: 073.1760 deg Mean motion: 14.29550046 rev/day Decay rate: -1.6e-07 rev/day^2 Epoch rev: 28175 Checksum: 292
Satellite: UWE-1 Catalog number: 28892 Epoch time: 07052.28044317 Element set: 0683 Inclination: 098.1442 deg RA of node: 311.1506 deg Eccentricity: 0.0018386 Arg of perigee: 112.6584 deg Mean anomaly: 247.6557 deg Mean motion: 14.59466892 rev/day Decay rate: 1.57e-06 rev/day^2 Epoch rev: 07030 Checksum: 311
Satellite: CO-58 Catalog number: 28895 Epoch time: 07052.19442910 Element set: 0664 Inclination: 098.1461 deg RA of node: 311.2340 deg Eccentricity: 0.0018991 Arg of perigee: 113.3998 deg Mean anomaly: 246.9193 deg Mean motion: 14.59516404 rev/day Decay rate: 1.38e-06 rev/day^2 Epoch rev: 07017 Checksum: 320
Satellite: NCUBE2 Catalog number: 28897 Epoch time: 07052.21348316 Element set: 0190 Inclination: 098.1444 deg RA of node: 311.2183 deg Eccentricity: 0.0018031 Arg of perigee: 114.1038 deg Mean anomaly: 246.2054 deg Mean motion: 14.59676221 rev/day Decay rate: 1.37e-06 rev/day^2 Epoch rev: 06245 Checksum: 271
Satellite: NMARS Catalog number: 29662 Epoch time: 07052.96878526 Element set: 0087 Inclination: 051.6424 deg RA of node: 335.2293 deg Eccentricity: 0.0009850 Arg of perigee: 238.7723 deg Mean anomaly: 121.2319 deg Mean motion: 15.90334462 rev/day Decay rate: 6.6060e-04 rev/day^2 Epoch rev: 00988 Checksum: 314
Satellite: FCAL Catalog number: 29664 Epoch time: 07052.95287874 Element set: 0065 Inclination: 051.6393 deg RA of node: 336.6053 deg Eccentricity: 0.0014071 Arg of perigee: 248.2409 deg Mean anomaly: 111.7098 deg Mean motion: 15.84704255 rev/day Decay rate: 2.0183e-04 rev/day^2 Epoch rev: 00984 Checksum: 307
/EX